Regional Weather Roundup
Issued by NWS

Home | Current Version | Previous Version | Text Only | Print | Product List | Glossary Off
Versions: 1 2 3 4 5 6 7 8 9 10 11 12 13 14 15 16 17 18 19 20 21 22 23 24 25 26 27 28 29 30 31 32 33 34 35 36 37 38 39 40 41 42 43 44 45 46 47 48 49 50

000
ASUS43 KDTX 240601
RWRMI
MICHIGAN HOURLY REGIONAL WEATHER ROUNDUP
NATIONAL WEATHER SERVICE DETROIT/PONTIAC MI
200 AM EDT FRI MAR 24 2017

NOTE: "FAIR" INDICATES FEW OR NO CLOUDS BELOW 12,000 FEET WITH NO
SIGNIFICANT WEATHER AND/OR OBSTRUCTION TO VISIBILITY.

MIZ047>049-052>055-059>063-066>070-074>076-081>083-240700-
SOUTHEAST LOWER MICHIGAN

CITY           SKY/WX    TMP DP  RH WIND       PRES   REMARKS
ADRIAN         LGT RAIN  38  35  89 S6        30.13F WCI  33
6HR MIN TEMP:  34; 6HR MAX TEMP:  38; 6HR PCP:  0.11;

ALMA           CLOUDY    37  34  88 CALM      30.06F
ANN ARBOR      HVY RAIN  37  35  92 SE10      30.10F FOG     WCI  30
BAD AXE        CLOUDY    35  21  57 S9        30.08F WCI  28
6HR MIN TEMP:  35; 6HR MAX TEMP:  37;

CARO           CLOUDY    38  27  65 S8        30.08R WCI  32
DETROIT CITY   CLOUDY    38  33  82 S7        30.14F WCI  33
6HR MIN TEMP:  34; 6HR MAX TEMP:  38; 6HR PCP:  0.06;

DETROIT        RAIN      39  34  82 S8        30.17R WCI  33
6HR MIN TEMP:  37; 6HR MAX TEMP:  40; 6HR PCP:  0.20;

FLINT          LGT RAIN  39  33  79 S22G35    30.00F WCI  29
6HR MIN TEMP:  36; 6HR MAX TEMP:  41; 6HR PCP:  0.05;

GROSSE ILE     LGT RAIN  37  32  84 S5        30.13S WCI  33
6HR MIN TEMP:  35; 6HR MAX TEMP:  40; 6HR PCP:  0.13;

HILLSDALE      LGT RAIN  37  34  87 SE7       30.07F WCI  32
HOWELL         LGT RAIN  37  34  88 S16       30.05F WCI  28
6HR MIN TEMP:  35; 6HR MAX TEMP:  40; 6HR PCP:  0.08;


CITY           SKY/WX    TMP DP  RH WIND       PRES   REMARKS
JACKSON        TSTM      39  36  89 S16       30.10F FOG     WCI  30
6HR MIN TEMP:  35; 6HR MAX TEMP:  41; 6HR PCP:  0.41;

LAMBERTVILLE   MIX PCPN  40  37  86 S3        30.14S
6HR MIN TEMP:  36; 6HR MAX TEMP:  40;

LANSING        CLOUDY    38  33  82 S16G23    30.02F WCI  29
6HR MIN TEMP:  36; 6HR MAX TEMP:  41; 6HR PCP:  0.16;

LAPEER         DRIZZLE   37  30  77 S12G21    30.05F WCI  29
6HR MIN TEMP:  35; 6HR MAX TEMP:  37;

MASON          LGT RAIN  38  36  92 S13G22    30.03F WCI  30
MONROE         RAIN      38  35  88 S7        30.13F WCI  33
6HR MIN TEMP:  35; 6HR MAX TEMP:  39; 6HR PCP:  0.15;

MT. CLEMENS    CLOUDY    35  35  99 S9        30.12F WCI  28
6HR MIN TEMP:  34; 6HR MAX TEMP:  37; 6HR PCP:  0.04;

PONTIAC        LGT RAIN  35  31  85 MISG      30.09F
6HR MIN TEMP:  34; 6HR MAX TEMP:  40; 6HR PCP:  0.06;

PORT HOPE        N/A     35  24  64 SE10      30.06F WCI  27
6HR MIN TEMP:  34; 6HR MAX TEMP:  37;

PORT HURON     LGT RAIN  36  27  69 S9        30.13F WCI  29
TRI CITIES     CLOUDY    38  31  76 S8        30.07F WCI  32
6HR MIN TEMP:  37; 6HR MAX TEMP:  41; 6HR PCP: TRACE;

MIDLAND        CLOUDY    40  28  61 S7        30.06F
6HR MIN TEMP:  39; 6HR MAX TEMP:  42;

TROY           LGT RAIN  37  32  82 SE5       30.13F WCI  33
SAGINAW HB     DRIZZLE   37  32  81 SE5       30.06F WCI  34
$$
MIZ043>046-050>051-056>058-064>065-071>073-077>080-240700-
SOUTHWEST LOWER MICHIGAN

CITY           SKY/WX    TMP DP  RH WIND       PRES   REMARKS
BATTLE CREEK   CLOUDY    41  38  89 SE10      30.04F
6HR MIN TEMP:  41; 6HR MAX TEMP:  46; 6HR PCP:  0.26;

BENTON HARBOR  CLOUDY    43  36  76 SE6       30.03F
6HR MIN TEMP:  43; 6HR MAX TEMP:  46; 6HR PCP:  0.06;

BIG RAPIDS     CLOUDY    36  32  84 S7        29.97F WCI  31
6HR MIN TEMP:  36; 6HR MAX TEMP:  41; 6HR PCP:  0.02;

COLDWATER      CLOUDY    41  36  81 SE7       30.07F
6HR MIN TEMP:  40; 6HR MAX TEMP:  46;

FREMONT        CLOUDY    40  36  86 S10       29.95F WCI  33
HOLLAND        CLOUDY    43  36  76 S15       29.99F
6HR MIN TEMP:  39; 6HR MAX TEMP:  46; 6HR PCP:  0.23;

GRAND RAPIDS   CLOUDY    42  37  82 S12G21    30.00F
6HR MIN TEMP:  39; 6HR MAX TEMP:  45; 6HR PCP:  0.24;

IONIA          CLOUDY    38  34  84 S3        30.02S
6HR MIN TEMP:  36; 6HR MAX TEMP:  43; 6HR PCP:  0.12;

KALAMAZOO      CLOUDY    42  35  76 SE6       30.05F
6HR MIN TEMP:  41; 6HR MAX TEMP:  47; 6HR PCP:  0.17;

LUDINGTON      CLOUDY    40  35  83 E5        29.95S
6HR MIN TEMP:  37; 6HR MAX TEMP:  43; 6HR PCP:  0.02;

MARSHALL       LGT RAIN  40  38  94 E7        30.07F
6HR MIN TEMP:  37; 6HR MAX TEMP:  46; 6HR PCP:  0.26;

MOUNT PLEASANT CLOUDY    37  30  75 SE9       30.01F WCI  30
6HR MIN TEMP:  37; 6HR MAX TEMP:  40;

MUSKEGON       MOCLDY    41  37  86 SE12      29.97F
6HR MIN TEMP:  38; 6HR MAX TEMP:  46; 6HR PCP:  0.25;

SOUTH HAVEN    MOCLDY    41  37  86 SE6       30.02F
$$
MIZ016>042-240700-
NORTHERN LOWER MICHIGAN

CITY           SKY/WX    TMP DP  RH WIND       PRES   REMARKS
ALPENA         CLOUDY    33  27  78 S6        30.07F WCI  28
6HR MIN TEMP:  33; 6HR MAX TEMP:  37; 6HR PCP:  0.01;

BEAVER ISLAND  LGT SNOW  32  31  96 E5        30.01F WCI  28
6HR MIN TEMP:  32; 6HR MAX TEMP:  37;

BELLAIRE       MIX PCPN  35  29  80 NE3       30.01S
6HR MIN TEMP:  35; 6HR MAX TEMP:  40;

CADILLAC       LGT RAIN  38  29  71 S9G17     29.96F WCI  31
CHARLEVOIX     RAIN      34  29  82 CALM      30.04S
FRANKFORT      CLOUDY    41  31  67 S6        29.97R
GAYLORD        LGT RAIN  35  23  61 S6        30.00S WCI  30
6HR MIN TEMP:  34; 6HR MAX TEMP:  38; 6HR PCP:  0.03;

GRAYLING       LGT RAIN  36  25  64 S6        30.00F WCI  31
HARBOR SPRINGS LGT SNOW  32  30  93 E3        30.04R
HOUGHTON LAKE  CLOUDY    36  23  59 S9        30.00F WCI  29
6HR MIN TEMP:  36; 6HR MAX TEMP:  38; 6HR PCP: TRACE;

MANISTEE       CLOUDY    41  31  67 S5        29.97S
OSCODA         CLOUDY    35  24  64 S7        30.05F WCI  29
6HR MIN TEMP:  34; 6HR MAX TEMP:  37;

PELLSTON       FRZ RAIN  33  27  78 CALM      30.06R
6HR MIN TEMP:  33; 6HR MAX TEMP:  38; 6HR PCP:  0.09;

ROGERS CITY    CLOUDY    33  26  75 S9        30.05R WCI  26
TRAVERSE CITY  LGT RAIN  37  33  85 CALM      29.98S
6HR MIN TEMP:  36; 6HR MAX TEMP:  43; 6HR PCP:  0.06;

$$
MIZ007>008-015-240700-
EASTERN UPPER MICHIGAN

CITY           SKY/WX    TMP DP  RH WIND       PRES   REMARKS
KINROSS        FLURRIES  32  29  88 SE7       30.05R WCI  26
6HR MIN TEMP:  31; 6HR MAX TEMP:  34; 6HR PCP:  0.07;

MACKINAC ISLAN FLURRIES  32  26  79 SE9       30.05R WCI  24
6HR MIN TEMP:  32; 6HR MAX TEMP:  37;

NEWBERRY       FLURRIES  31  30  96 SE6       30.01F WCI  25
6HR MIN TEMP:  31; 6HR MAX TEMP:  33; 6HR PCP:  0.02;

S. S. MARIE    LGT RAIN  33  28  81 SE6       30.04F WCI  28
6HR MIN TEMP:  33; 6HR MAX TEMP:  34; 6HR PCP:  0.11;

MUNISING         N/A     34  32  92 S6        29.94F WCI  29
6HR MIN TEMP:  33; 6HR MAX TEMP:  34; 6HR PCP:  0.21;

$$
MIZ004>006-011>014-085-240700-
CENTRAL UPPER MICHIGAN

CITY           SKY/WX    TMP DP  RH WIND       PRES   REMARKS
MANISTIQUE     LGT SNOW  32  32 100 SE7       29.98F WCI  26
ESCANABA       CLOUDY    33  32  96 NE3       29.98F
6HR MIN TEMP:  33; 6HR MAX TEMP:  35; 6HR PCP:  0.14;

MENOMINEE        N/A    N/A N/A N/A MISG        N/A
SAWYER-GWINN   MIX PCPN  32  31  96 S8        29.90F WCI  25
6HR MIN TEMP:  31; 6HR MAX TEMP:  32; 6HR PCP:  0.18;

$$
MIZ001>003-009>011-084-240700-
WESTERN UPPER MICHIGAN

CITY           SKY/WX    TMP DP  RH WIND       PRES   REMARKS
IRON MOUNTAIN  MIX PCPN  32  27  81 CALM      29.93S
6HR MIN TEMP:  31; 6HR MAX TEMP:  32; 6HR PCP: TRACE;

HOUGHTON       MIX PCPN  32  29  88 SE3       29.91R FOG
6HR MIN TEMP:  32; 6HR MAX TEMP:  33; 6HR PCP:  0.15;

COPPER HARBOR    N/A     32  31  96 VRB5      29.92F WCI  27
6HR MIN TEMP:  32; 6HR MAX TEMP:  33; 6HR PCP:  0.27;

IRONWOOD       MIX PCPN  33  31  92 CALM      29.90R FOG
6HR MIN TEMP:  33; 6HR MAX TEMP:  38; 6HR PCP:  0.18;

$$

ABBREVIATIONS USED IN REMARKS
   TC - TEMPERATURE IN CELSIUS
  WCI - WIND CHILL INDEX
   HX - HEAT INDEX
  VSB - VISIBILITY





USA.gov is the U.S. government's official web portal to all federal, state and local government web resources and services.